Tracking 19709 objects as of 21-Jun-2019
HD Live streaming from Space Station
objects crossing your sky now

FENGYUN 1C DEB

Track FENGYUN 1C DEB now!
10-day predictions


NORAD ID: 31738
Int'l Code: 1999-025CEM
Perigee: 742.5 km
Apogee: 1,233.5 km
Inclination: 99.6 °
Period: 104.7 minutes
Semi major axis: 7359 km
RCS: 0.0147 m2 (small)
Launch date: May 10, 1999
Source: People's Republic of China (PRC)
Launch site: Taiyaun Space Center, China (TSC)

Note: This is SATELLITE DEBRIS
aabbcc
Your satellite tracking list
Your tracking list is empty




NASA's NSSDC Master Catalog

Two Line Element Set (TLE):
1 31738U 99025CEM 19166.33388623  .00000804  00000-0  59199-3 0  9994
2 31738  99.5564 205.4997 0333582 220.5727 137.0123 13.75219867605037
Source of the keplerian elements: AFSPC